TimeCDT,TemperatureF,Dew PointF,Humidity,Sea Level PressureIn,VisibilityMPH,Wind Direction,Wind SpeedMPH,Gust SpeedMPH,PrecipitationIn,Events,Conditions,WindDirDegrees,DateUTC
12:54 AM,34.0,28.0,79,30.01,10.0,NNW,9.2,-,N/A,,Scattered Clouds,340,2012-11-02 05:54:00
1:54 AM,32.0,26.1,79,30.02,10.0,NW,6.9,-,N/A,,Clear,320,2012-11-02 06:54:00
2:54 AM,32.0,23.0,69,30.03,10.0,NNW,5.8,-,N/A,,Clear,330,2012-11-02 07:54:00
3:54 AM,30.9,23.0,72,30.04,10.0,NNW,6.9,-,N/A,,Clear,330,2012-11-02 08:54:00
4:54 AM,30.0,23.0,75,30.04,10.0,Calm,Calm,-,N/A,,Clear,0,2012-11-02 09:54:00
5:54 AM,28.0,21.9,78,30.05,10.0,Calm,Calm,-,N/A,,Clear,0,2012-11-02 10:54:00
6:54 AM,28.0,21.9,78,30.08,10.0,NW,4.6,-,N/A,,Clear,310,2012-11-02 11:54:00
7:54 AM,28.0,21.9,78,30.10,10.0,NW,4.6,-,N/A,,Clear,310,2012-11-02 12:54:00
8:54 AM,30.0,23.0,75,30.11,10.0,Calm,Calm,-,N/A,,Clear,0,2012-11-02 13:54:00
9:54 AM,34.0,21.9,61,30.13,10.0,North,5.8,-,N/A,,Clear,350,2012-11-02 14:54:00
10:54 AM,36.0,21.9,57,30.13,10.0,NNW,5.8,-,N/A,,Clear,340,2012-11-02 15:54:00
11:54 AM,37.9,21.9,53,30.14,10.0,West,3.5,-,N/A,,Clear,270,2012-11-02 16:54:00
12:54 PM,39.0,21.9,50,30.14,10.0,NW,6.9,-,N/A,,Clear,320,2012-11-02 17:54:00
1:54 PM,42.1,21.0,43,30.13,10.0,NNW,5.8,-,N/A,,Clear,330,2012-11-02 18:54:00
2:54 PM,44.1,21.0,40,30.12,10.0,Variable,3.5,-,N/A,,Clear,0,2012-11-02 19:54:00
3:54 PM,44.1,19.9,38,30.12,10.0,Variable,3.5,-,N/A,,Clear,0,2012-11-02 20:54:00
4:54 PM,42.1,18.0,38,30.13,10.0,North,5.8,-,N/A,,Clear,10,2012-11-02 21:54:00
5:54 PM,39.9,19.9,45,30.14,10.0,Calm,Calm,-,N/A,,Clear,0,2012-11-02 22:54:00
6:54 PM,37.9,19.0,47,30.16,10.0,NNE,4.6,-,N/A,,Clear,20,2012-11-02 23:54:00
7:54 PM,36.0,19.0,50,30.17,10.0,Calm,Calm,-,N/A,,Clear,0,2012-11-03 00:54:00
8:54 PM,34.0,19.9,56,30.17,10.0,NE,4.6,-,N/A,,Clear,40,2012-11-03 01:54:00
9:54 PM,30.9,19.9,64,30.19,10.0,Calm,Calm,-,N/A,,Clear,0,2012-11-03 02:54:00
10:54 PM,30.0,19.9,66,30.22,10.0,Calm,Calm,-,N/A,,Clear,0,2012-11-03 03:54:00
11:54 PM,28.9,19.9,69,30.23,10.0,Calm,Calm,-,N/A,,Clear,0,2012-11-03 04:54:00